Home > Weather > Aurora > Past weeks

Flag for U.S.A. Weather for the Past 2 Weeks in Aurora, Illinois, U.S.A.

Now
19 °F

Light snow. Overcast.


Feels Like: 6 °F
Forecast: 15 / 22 °F
Wind: 13 mph from Northwest

Location: Dupage Airport

Current Time: Feb 9, 2016 at 3:02:37 AM

Latest Report: Feb 9, 2016 at 1:52 AM


Visibility: 6 mi

Pressure: 29.76 "Hg

Humidity: 74%

Dew point: 12 °F

Location of AuroraLocation

Historic Weather in Aurora — Graph

°F

Aurora Temperature Yesterday

Maximum temperature yesterday: 31 °F (at 4:52 AM)
Minimum temperature yesterday: 21 °F (at 11:52 PM)
Average temperature yesterday: 26 °F

High & Low Weather Summary for the Past Weeks

 TemperatureHumidityPressure
High48 °F (Jan 31, 10:52 AM)100% (Feb 2, 10:04 PM)30.38 "Hg (Feb 2, 10:04 PM)
Low18 °F (Jan 29, 5:52 AM)45% (Jan 29, 12:52 PM)29.46 "Hg (Feb 3, 2:52 AM)
Average32 °F76%29.90 "Hg
* Reported Jan 25 1:52 AM — Feb 9 1:02 AM, Aurora, Weather by CustomWeather, © 2016

Note: Actual official high and low records may vary slightly from our data, if they occured in-between our weather recording intervals... More about our weather records

Advertising

Aurora Weather History for the Previous 24 Hours

 ConditionsComfort  
Time TempWeatherWind HumidityBarometerVisibility
1:02 AM
Tue, Feb 9
19 °FLight snow. Mostly cloudy.12 mph77%29.73 "Hg1 mi
12:52 AM19 °FLight snow. Overcast.15 mph77%29.77 "Hg2 mi
11:52 PM
Mon, Feb 8
21 °FLight snow. Overcast.13 mph71%29.77 "Hg10 mi
10:52 PM22 °FLight snow. Mostly cloudy.20 mph72%29.77 "Hg3 mi
9:52 PM22 °FLight snow. Mostly cloudy.20 mph75%29.78 "Hg8 mi
8:54 PM23 °FLight snow. Mostly cloudy.12 mph81%29.75 "Hg3 mi
7:52 PM24 °FLight snow. Mostly cloudy.14 mph75%29.78 "Hg5 mi
6:52 PM25 °FOvercast.12 mph72%29.78 "Hg10 mi
5:52 PM26 °FOvercast.13 mph71%29.77 "Hg10 mi
4:52 PM26 °FOvercast.14 mph71%29.75 "Hg10 mi
3:52 PM26 °FOvercast.12 mph74%29.74 "Hg10 mi
2:52 PM26 °FOvercast.13 mph74%29.72 "Hg10 mi
1:52 PM26 °FOvercast.14 mph77%29.70 "Hg10 mi
12:52 PM26 °FOvercast.10 mph77%29.70 "Hg10 mi
11:52 AM26 °FOvercast.12 mph77%29.70 "Hg10 mi
10:52 AM27 °FOvercast.13 mph78%29.70 "Hg10 mi
9:52 AM27 °FMostly cloudy.13 mph75%29.69 "Hg10 mi
8:52 AM28 °FOvercast.14 mph72%29.67 "Hg10 mi
7:52 AM28 °FOvercast.13 mph72%29.66 "Hg10 mi
6:52 AM29 °FMostly cloudy.13 mph75%29.65 "Hg10 mi
5:52 AM31 °FLight snow. Mostly cloudy.14 mph82%29.64 "Hg7 mi
4:52 AM31 °FLight snow. Ice fog.8 mph89%29.62 "Hg1 mi
3:52 AM29 °FPassing clouds.7 mph85%29.63 "Hg10 mi
Weather by CustomWeather, © 2016

See weather overviewHow to use our weather pages